Home > Weather > Szeged > Past weeks

Flag for Hungary Weather for the Past 2 Weeks in Szeged, Hungary

Now
54 °F

Overcast.


Feels Like: 54 °F
Forecast: 43 / 63 °F
Wind: 3 mph from North

Location: Szeged

Current Time: Apr 29, 2016 at 8:31:36 PM

Latest Report: Apr 29, 2016 at 7:00 PM


Visibility: 16 mi

Pressure: 30.10 "Hg

Humidity: 77%

Dew Point: 47 °F

Location of SzegedLocation

Historic Weather in Szeged — Graph

°F

Szeged Temperature Yesterday

Maximum temperature yesterday: 57 °F (at 5:00 PM)
Minimum temperature yesterday: 40 °F (at 4:00 AM)
Average temperature yesterday: 50 °F

High & Low Weather Summary for the Past Weeks

 TemperatureHumidityPressure
High79 °F (Apr 17, 3:00 PM)97% (Apr 24, 9:00 PM)30.35 "Hg (Apr 24, 9:00 PM)
Low33 °F (Apr 26, 6:00 AM)24% (Apr 16, 1:00 PM)29.57 "Hg (Apr 24, 12:00 PM)
Average55 °F62%29.92 "Hg
* Reported Apr 14 7:00 PM — Apr 29 7:00 PM, Szeged, Weather by CustomWeather, © 2016

Note: Actual official high and low records may vary slightly from our data, if they occured in-between our weather recording intervals... More about our weather records

Advertising

Szeged Weather History for the Previous 24 Hours

Scroll right to see more
 ConditionsComfort  
Time TempWeatherWind HumidityBarometerVisibility
7:00 PM
Fri, Apr 29
54 °FOvercast.3 mph77%30.10 "Hg16 mi
6:00 PM54 °FOvercast.5 mph77%30.11 "Hg12 mi
5:00 PM54 °FOvercast.5 mph79%30.10 "Hg16 mi
4:00 PM54 °FOvercast.5 mph79%30.10 "Hg19 mi
3:00 PM55 °FOvercast.6 mph77%30.09 "Hg16 mi
2:00 PM54 °FOvercast.6 mph78%30.10 "Hg16 mi
1:00 PM53 °FOvercast.5 mph77%30.10 "Hg19 mi
12:00 PM55 °FOvercast.6 mph79%30.10 "Hg19 mi
11:00 AM52 °FOvercast.7 mph83%30.10 "Hg12 mi
10:00 AM49 °FLight rain. Low clouds.6 mph91%30.10 "Hg5 mi
9:00 AM48 °FLight rain. Overcast.3 mph90%30.10 "Hg5 mi
8:00 AM47 °FLight rain. Overcast.5 mph90%30.09 "Hg4 mi
7:00 AM46 °FLight rain. Overcast.3 mph92%30.08 "Hg4 mi
3:00 AM48 °FLight rain. Overcast.3 mph91%30.05 "Hg6 mi
2:00 AM48 °FLight rain. Overcast.3 mph89%30.04 "Hg6 mi
11:00 PM
Thu, Apr 28
49 °FOvercast.1 mph85%30.05 "Hg12 mi
10:00 PM50 °FOvercast.1 mph81%30.05 "Hg16 mi
9:00 PM52 °FOvercast.1 mph79%30.04 "Hg16 mi
8:00 PM54 °FOvercast.2 mph72%30.03 "Hg16 mi
Weather by CustomWeather, © 2016

See weather overviewHow to use our weather pages